Terug naar catalogus

DELTA 1 DEB

ActiefPO
NORAD 21442·DEBRIS·🇺🇸 United States

Gelanceerd Jun 12, 1975 vanaf Vandenberg Space Force Base

Loading…

Volgende Passages (komende 24 uur)

TLE

VersSource: Space-Track

Epoch: Sep 12, 2026, 15:12 UTC

1 21442U 75052EA  26255.63379955  .00004220  00000-0  86258-2 0  9998
2 21442  99.4811 140.8996 0339002  27.7410   1.8623 13.14173499650869

Volg DELTA 1 DEB in realtime met AllMySat

Download on the App Store